Погода в Якутске

Погода в Якутске : погода сейчас, прогноз погоды и архив. Всё, что Вы хотите узнать о погоде в Якутске!

Хотите узнать прогноз погоды в Якутске? Тогда Вам сюда: Погода в Якутске

Поиск расширенной информации на нашем сайте:

Другие новости

Новости СМИ2

Главная страница сайта

Новости сайта

03.07.2017

Напоминаем, что на нашем специализированном сайте Метеоцентр.Азия вы можете получить высокодетализированные автоматические прогнозы погоды по пунктам России, СНГ и мира в авиационном формате (включающие направление и скорость ветра, видимость, явления погоды, количество и форму облачности, нижнюю и верхнюю границу облачности).


Погода в Якутске - сегодня

Время (UTC), дата Ветер
(°,м/с) 
Видим.   Явления Облачность Т
(°С)
Тd
(°С)
f(%) Тe
(°С)
Pmin
(гПа)
dP
(гПа)
Po
(мм)
O2
(г/м3)
Тmin Tmax R s Состояние
почвы
21 16.04.18 280 (З) 20000 м  {ливн. осадки}  10/4 600 м кучево-дожд., верхняя 
[Cb cap|Cs]
-0.9 -6.3 67 -3  1002.7  0.3  743  301           
09 17.04.18 310 (СЗ) 5{13}  20000 м    8/1 1000 м средняя, верхняя 
[Cu hum|Ac trans|Ci fib]
+4.8 -11.9 29 +3  1003  0.6  743  295           
15 17.04.18 260 (З) 20000 м    ясно 
-0.8 -12.6 40 -2  1004.2  0.2  744  302           
18 17.04.18 250 (З) 20000 м    ясно 
-2.3 -11.8 48 -3  1004.6  0.3  744  303           
21 17.04.18 270 (З) 20000 м    ясно 
-2.1 -10.7 52 -2  1005.1  0.5  744  303           
03 18.04.18 300 (СЗ) 20000 м    3/1 600 м средняя 
[Cu hum|Ac trans]
+6 -11.2 28 +6  1004.9  744  295           
06 18.04.18 240 (ЮЗ) 20000 м    5/1 600 м верхняя 
[Cu hum|Ci fib]
+7.6 -11.8 24 +8  1004.3  -0.5  744  293           
09 18.04.18 150 (ЮВ) 20000 м    6/3 600 м кучево-дожд., средняя, верхняя 
[Cb cap|Ac trans|Ci fib]
+6.4 -9.8 30 +6  1004  -0.4  744  294           
15 18.04.18 тихо ()   20000 м    5/0 верхняя 
[Ci fib]
-3.3 -5.6 84 -3  1003.4  -1  743  304           
18 18.04.18 010 (С) 20000 м    4/0 верхняя 
[Ci fib]
-3.9 -6.2 84 -3  1002.9  -0.5  743  304           
21 18.04.18 090 (В) 20000 м    4/0 верхняя 
[Ci fib]
-3.9 -5.9 86 -3  1002.2  -0.7  742  304           
00 19.04.18 070 (В) 20000 м    10/0 верхняя 
[Ci fib]
+3.8 -8.1 41 +5  1001.3  -0.5  742  296  -5.4      мокрый или
старый снег
50-90% 
03 19.04.18 230 (ЮЗ) 20000 м    10/0 верхняя 
[Cs]
+9.2 -7.4 30 +8  1000.8  -0.3  742  290           
06 19.04.18 300 (СЗ) 6-14{14}  20000 м    10/3 600 м средняя, верхняя 
[Cu med, cong|Ac trans|Cs]
+6.1 +0.4 67 +4  1002.5  1.6  743  293           
09 19.04.18 290 (З) 3{14}  10 км  слаб. ливневой снег  10/8 600 м кучево-дожд., средняя 
[Cb cap|Ac trans]
+0.7 -1.2 87 -1  1006.1  3.3  745  300           
12 19.04.18 300 (СЗ) 1{11}  20000 м  слаб. ливневой снег  10/5 600 м кучево-дожд., средняя 
[Cb cap|Ac trans]
-0.4 -2.2 88 1008.7  2.5  747  302    +10  0.6     
15 19.04.18 250 (З) 20000 м  {ливн. осадки}  10/4 600 м кучево-дожд., средняя 
[Cb cap|Ac trans]
-0.6 -2.5 87 1009.9  1.1  748  302           
18 19.04.18 290 (З) 20000 м  {ливн. осадки}  10/3 600 м кучево-дожд., средняя, верхняя 
[Cb cap|Ac trans|Ci fib]
-2.2 -5.1 80 -3  1010.8  0.9  749  305           
21 19.04.18 300 (СЗ) 20000 м    10/0 средняя, верхняя 
[Ac trans|Ci fib]
-2 -5.5 77 -3  1011.5  0.7  749  305           
03 20.04.18 290 (З) 20000 м    10/3 1000 м средняя, верхняя 
[Cu hum|Ac trans|Ci fib]
+4.9 -10.3 32 +3  1011.8  -0.2  750  298           
06 20.04.18 300 (СЗ) 20000 м    6/1 1000 м верхняя 
[Cu hum|Ci fib]
+5.6 -13 25 +5  1012  0.2  750  297           
09 20.04.18 330 (СЗ) 20000 м    4/1 600 м средняя, верхняя 
[Cu hum|Ac trans|Ci fib]
+5.1 -12.1 28 +4  1012.2  0.4  750  298           
15 20.04.18 320 (СЗ) 20000 м    ясно 
-0.9 -9.5 52 -2  1015.5  1.3  752  305           
18 20.04.18 300 (СЗ) 20000 м    ясно 
-3 -10.5 56 -4  1016.6  0.9  753  308           
21 20.04.18 290 (З) 20000 м    3/0 верхняя 
[Ci fib]
-4.1 -11.8 55 -5  1017.9  1.2  754  309           
Время (UTC), дата Ветер
(°,м/с) 
Видим.   Явления Облачность Т
(°С)
Тd
(°С)
f(%) Тe
(°С)
Pmin
(гПа)
dP
(гПа)
Po
(мм)
O2
(г/м3)
Тmin Tmax R s Состояние
почвы

Для получения пояснительной информации подведите курсор к названию столбца.

ПОГОДА в Якутске - архив

Всё, что Вы хотите узнать о погоде в Якутске - удобно и подробно!

Выберите нужную дату (начиная с 1 января 2015* года) и нажмите кнопку "Найти".
Будут отображены архивные сводки погоды по пункту Якутск, начиная с указанной даты.


Отображать данные в формате CSV (для использования в таблицах Excel)


Внимание! Наш архив погоды предназначен исключительно для личного некоммерческого использования в познавательных целях. Если Вам необходимы официальные справки о состоянии погоды (для производственных, юридических, коммерческих и т.п. целей), обращайтесь в органы Росгидромета.

*Примечание: данная дата относится к архиву по метеостанциям СССР (Россия, СНГ, Балтия).
Архив по метеостанциям Зарубежной Европы и Азии (кроме Китая) хранится 10 дней, по другим регионам земного шара (Китай, Африка, Америка, Австралия, Океания) - 1 день.

Якутск - район местоположения метеостанции


Название, широта, долгота, высота метеостанции:
Якутск 62°ш. 129.7°д. 101 м над ур. моря [Российская Федерация]

Дополнительная информация

В oтличие oт бoльшинства пoгoдных сайтoв мы публикуем пoдрoбную метеoинфoрмацию в детальнoм прoфессиoнальнoм фoрмате.

Характеристики температуры и влажнoсти вoздуха измеряются на высoте 2 м в тени вдали oт зданий и деревьев.
Скoрoсть ветра измеряется на высoте 10 м (на урoвне рoста челoвека скoрoсть ветра ниже в 1.5-2 раза). Если метеoстанция нахoдится в гoрoде или в лесу, тo скoрoсть ветра занижена на 2-4 м/с пo сравнению с oткрытым местoм. Скoрoсть ветра над акватoриями крупных рек и oзёр, а также на вершинах хoлмoв на 2-5 м/с выше, чем в oбычных услoвиях.
Атмoсфернoе давление в разных тoчках местнoсти мoжет значительнo oтличаться oт давления на метеoстанции, в зависимoсти oт услoвий рельефа (при пoдъёме на 10 м давление пoнижается примернo на 1 мм рт.ст.).